Location: Harburg
(48.7667°N, 10.6667°E)
Time: 08:08:04
(UTC+00:00)

CZ-2C R/B - Pass Details

Date: 18 September 2020
Orbit: 704 x 908 km, 98.1° (Epoch: 27 October)

Event Time Altitude Azimuth Distance (km) Brightness Sun altitude
Rises 17:56:41 0° 161° (SSE) 3,247 6.0 -6.3°
Reaches altitude 10° 17:58:56 10° 161° (SSE) 2,353 5.2 -6.7°
Maximum altitude 18:04:09 82° 74° (ENE) 839 3.2 -7.6°
Drops below altitude 10° 18:09:43 10° 348° (NNW) 2,504 6.0 -8.5°
Sets 18:12:10 0° 347° (NNW) 3,471 6.8 -8.8°
